Location: Roswell
(33.3943°N, 104.5230°W)
Time: 23:33:18
(UTC+00:00)

Transit 2A - Visible Passes

Search period start: 04 November 2024 00:00
Search period end: 14 November 2024 00:00
Orbit: 591 x 959 km, 66.7° (Epoch: 04 November)

Date Brightness Start Highest point End Pass type
(mag) Time Alt. Az. Time Alt. Az. Time Alt. Az.
04 Nov 8.1 12:10:26 10° S 12:16:02 37° ESE 12:21:47 10° NE visible
05 Nov 8.7 11:35:48 10° SSE 11:40:40 25° ESE 11:45:39 10° NE visible
06 Nov 9.2 11:01:47 10° SE 11:05:22 16° ESE 11:08:59 10° ENE visible
06 Nov 6.4 12:41:39 10° SSW 12:47:50 71° WNW 12:54:11 10° NNE visible
07 Nov 6.6 12:06:03 10° SSW 12:12:15 80° ESE 12:18:37 10° NNE visible
08 Nov 7.2 11:30:46 10° S 11:36:46 53° ESE 11:42:55 10° NE visible
09 Nov 7.9 10:55:46 10° S 11:01:19 35° ESE 11:07:00 10° NE visible
09 Nov 7.0 12:38:45 10° WSW 12:44:25 35° WNW 12:50:10 10° N visible
10 Nov 8.5 10:21:11 10° SSE 10:25:56 23° ESE 10:30:47 10° NE visible
10 Nov 6.6 12:02:38 10° SW 12:08:42 51° WNW 12:14:51 10° NNE visible
11 Nov 8.9 09:49:27 14° ESE 09:50:37 15° ESE 09:53:59 10° ENE visible
11 Nov 6.3 11:30:01 33° SW 11:33:02 75° WNW 11:39:24 10° NNE visible
12 Nov 6.5 10:57:28 76° ESE 10:57:28 76° ESE 11:03:48 10° NNE visible
12 Nov 7.8 12:37:59 13° W 12:41:14 18° NW 12:45:28 10° N visible
13 Nov 7.8 10:24:22 34° ENE 10:24:22 34° ENE 10:28:02 10° NE visible
13 Nov 7.3 12:04:51 26° WNW 12:05:21 26° NW 12:10:31 10° N visible
